Regional Weather Roundup
Issued by NWS

Home | Current Version | Previous Version | Graphics & Text | Print | Product List | Glossary On
Versions: 1 2 3 4 5 6 7 8 9 10 11 12 13 14 15 16 17 18 19 20 21 22 23 24 25 26 27 28 29 30 31 32 33 34 35 36 37 38 39 40 41 42 43 44 45 46 47 48 49 50
000
ASUS45 KPSR 011010
RWRAZ

ARIZONA HOURLY REGIONAL WEATHER ROUNDUP
NATIONAL WEATHER SERVICE PHOENIX AZ
300 AM MST WED JUL 01 2015

NOTE: FAIR INDICATES FEW OR NO CLOUDS BELOW 12,000 FEET WITH NO
SIGNIFICANT WEATHER AND/OR OBSTRUCTIONS TO VISIBILITY.

AZZ001>003-036-011100-
NORTHWEST ARIZONA

CITY           SKY/WX    TMP DP  RH WIND       PRES   REMARKS
BULLHEAD CITY  CLOUDY    90  63  40 S9        29.82S
KINGMAN        MOCLDY    79  54  41 SW13      30.00R
$$

AZZ004>008-015-016-018-011100-
NORTH CENTRAL ARIZONA

CITY           SKY/WX    TMP DP  RH WIND       PRES   REMARKS
GRAND CANYON   PTCLDY    57  53  86 CALM      30.21F
WILLIAMS       MOCLDY    68  54  60 SW9       30.30R
PRESCOTT       LGT RAIN  71  60  68 VRB5      30.14R
FLAGSTAFF      MOCLDY    63  56  78 SW12      30.27R
PAYSON         PTCLDY    68  61  77 CALM      30.17S
PAGE           MOCLDY    84  43  23 CALM      29.99R
$$

AZZ009>014-017-011100-
NORTHEAST ARIZONA

CITY           SKY/WX    TMP DP  RH WIND       PRES   REMARKS
WINSLOW        PTCLDY    74  55  51 VRB5      30.07R
SAINT JOHNS    CLEAR     66  54  65 CALM      30.14S
WINDOW ROCK    MOCLDY    62  52  69 CALM      30.23S
SHOW LOW       CLEAR     61  50  67 S13       30.22F
$$

AZZ023-011100-
GREATER PHOENIX AREA

CITY           SKY/WX    TMP DP  RH WIND       PRES   REMARKS
PHOENIX        PTCLDY    87  67  51 SE9       29.88R
BUCKEYE          N/A     84  59  42 SW5       29.89R
LUKE AFB       MOCLDY    88  63  42 S10       29.87R
DEER VALLEY    PTCLDY    87  62  43 SW9       29.90R
SCOTTSDALE     PTCLDY    86  63  45 SE5       29.93R
MESA-GATEWAY   PTCLDY    81  66  61 SE7       29.94R
$$

AZZ027-028-011100-
SOUTHWEST MARICOPA COUNTY AND PINAL COUNTY

CITY           SKY/WX    TMP DP  RH WIND       PRES   REMARKS
CASA GRANDE    CLOUDY    81  66  61 S9        29.92R
GILA BEND      LGT RAIN  82  72  69 W5        29.86R
$$

AZZ503-504-507>509-011100-
SOUTHEAST ARIZONA

CITY           SKY/WX    TMP DP  RH WIND       PRES   REMARKS
TUCSON         CLOUDY    74  64  71 SE12      30.01F
DAVIS-MONTHAN  MOCLDY    73  65  75 SE8       30.00F
NOGALES        CLOUDY    68  63  84 CALM      30.07F
SIERRA VISTA   CLOUDY    66  63  90 W3        30.13S
DOUGLAS        MOCLDY    69  58  67 E6        30.09S
SAFFORD        MOCLDY    81  60  48 E6        29.99R
$$

AZZ020-021-025-026-031-011100-
SOUTHWEST ARIZONA

CITY           SKY/WX    TMP DP  RH WIND       PRES   REMARKS
YUMA           CLOUDY    87  66  49 S16       29.85R
$$

CAZ031-033-041-043-047-048-061-011100-
SOUTHERN CALIFORNIA

CITY           SKY/WX    TMP DP  RH WIND       PRES   REMARKS
DOWNTOWN L.A.  CLEAR     67  63  87 CALM      29.85S
L.A. AIRPORT   PTCLDY    66  63  90 CALM      29.86S
SAN DIEGO      MOCLDY    70  64  81 SW3       29.88F
BURBANK        CLEAR     74  60  61 CALM      29.86S
ONTARIO        MOCLDY    75  57  53 SE3       29.91R
RIVERSIDE      MOCLDY    76  56  49 CALM      29.92R
PALM SPRINGS   CLOUDY    89  63  41 E8        29.88R
EL CENTRO NAS  LGT RAIN  89  65  44 S18       29.79F
IMPERIAL       CLOUDY    88  68  51 S21G33    29.76F
BLYTHE         CLOUDY    91  60  35 SW24G32   29.82F
NEEDLES        TSTM      84  65  52 W26G32    29.75F
$$

NVZ020-UTZ003-011100-
SOUTHERN NEVADA-UTAH

CITY           SKY/WX    TMP DP  RH WIND       PRES   REMARKS
LAS VEGAS      CLOUDY    93  55  27 S29G37    29.80R THUNDER
SALT LAKE CITY MOCLDY    79  56  45 S9        30.02F
$$

NMZ009-TXZ055-011100-
NEW MEXICO-WEST TEXAS

CITY           SKY/WX    TMP DP  RH WIND       PRES   REMARKS
ALBUQUERQUE    CLEAR     72  44  36 E7        30.18S
EL PASO        PTCLDY    75  51  43 NE5       30.07F
$$


........................KEY........................
SKY/WX - SKY CONDITION/WEATHER
TMP    - TEMPERATURE IN FAHRENHEIT
DP     - DEW POINT IN FAHRENHEIT
RH     - RELATIVE HUMIDITY IN PERCENT
WIND   - DIRECTION AND SPEED IN MILES PER HOUR (MPH)
VRB    - VARIABLE WIND DIRECTION
PRES   - MEAN SEA LEVEL PRESSURE IN INCHES OF MERCURY
         F - FALLING PRESSURE   R - RISING PRESSURE
         S - STEADY PRESSURE
VSB    - VISIBILITY IN MILES
HX     - HEAT INDEX IN FAHRENHEIT
WCI    - WIND CHILL INDEX IN FAHRENHEIT
TC     - TEMPERATURE IN CELSIUS WHICH IS ALSO KNOWN AS
         TEMPERATURE IN CENTIGRADE
AFB    - AIR FORCE BASE
         LUKE AFB IS LUKE AIR FORCE BASE
         DAVIS-MONTHAN IS DAVIS-MONTHAN AIR FORCE BASE
NAS    - NAVAL AIR STATION
         EL CENTRO NAS IS EL CENTRO NAVAL AIR STATION
N/A    - NOT AVAILABLE



USA.gov is the U.S. government's official web portal to all federal, state and local government web resources and services.